Probability
0 0 0 0 0 0 0 0 0 0 0 0 1 3 2 1 1 0 0 2 8 10 5 1 1 2 4 6 5 4 2 1 0 0 0 0 0 0 0 0 0 0 0 0 0 0 0 0 0
0 0 0 0 0 0 0 0 0 0 0 1 3 6 6 3 2 1 0 4 11 12 6 3 5 5 6 7 5 4 2 1 0 0 0 0 0 0 0 0 0 0 0 0 0 0 0 0 0
0 0 0 0 0 0 0 0 0 0 1 1 5 10 9 5 3 3 3 8 15 15 10 9 12 13 11 8 6 4 2 1 0 0 0 0 0 0 0 0 0 0 0 0 0 0 0 0 0
0 0 0 0 0 0 0 0 0 0 1 2 7 12 11 7 5 7 11 16 20 17 15 17 21 21 17 12 9 5 2 1 0 0 0 0 0 0 0 0 0 0 0 0 0 0 0 0 0
0 0 0 0 0 0 0 0 0 1 1 5 13 18 15 10 10 14 20 24 25 21 21 25 29 27 23 18 11 6 2 0 0 0 0 0 0 0 0 0 0 0 0 0 0 0 0 0 0
0 0 0 0 0 0 0 0 1 4 6 12 21 26 21 15 16 20 25 28 29 28 28 31 33 30 24 19 14 8 3 0 0 0 0 0 0 0 0 0 0 0 0 0 0 0 0 0 0
0 0 0 0 0 0 0 0 3 8 13 17 25 28 22 18 21 25 28 30 33 36 37 37 36 31 24 19 15 9 4 1 0 0 0 0 0 0 0 0 0 0 0 0 0 0 0 0 0
0 0 0 0 0 0 0 0 3 10 17 21 23 23 21 25 32 34 34 34 39 44 44 42 39 34 28 22 17 11 6 3 1 0 0 0 0 0 0 0 0 0 0 0 0 0 0 0 0
0 0 0 0 0 0 0 0 2 10 19 23 22 22 28 41 49 46 41 38 40 44 44 42 41 39 33 25 19 13 7 4 2 0 0 0 0 0 0 0 0 0 0 0 0 0 0 0 0
0 0 0 0 0 0 0 0 4 11 19 22 24 30 42 55 58 51 44 39 38 41 40 39 42 42 35 27 21 15 9 5 2 1 0 0 0 0 0 0 0 0 0 0 0 0 0 0 0
0 0 0 0 0 0 0 1 4 10 14 17 26 39 50 55 53 47 41 38 38 39 37 37 41 42 35 28 23 18 12 7 3 1 0 0 0 0 0 0 0 0 0 0 0 0 0 0 0
0 0 0 0 1 1 1 1 4 7 9 16 29 43 50 49 45 40 36 35 36 37 35 35 37 37 34 30 26 21 15 10 5 2 1 0 0 0 0 0 0 0 0 0 0 0 0 0 0
0 0 0 1 2 3 3 2 3 6 11 21 34 43 46 44 39 34 31 29 29 31 32 33 32 31 31 30 27 22 16 11 7 4 2 1 0 0 0 0 0 0 0 0 0 0 0 0 0
0 0 0 2 3 3 3 3 4 9 17 26 34 38 38 37 34 31 28 25 24 25 28 32 31 28 26 26 23 18 15 12 8 5 2 1 0 0 0 0 0 0 0 0 0 0 0 0 0
0 0 0 1 2 3 2 3 5 12 21 26 28 29 29 30 30 29 27 23 19 21 25 29 28 25 21 18 15 14 13 11 8 4 2 0 0 0 0 0 0 0 0 0 0 0 0 0 0
0 0 0 0 1 2 2 2 4 13 22 24 22 22 22 23 24 25 24 20 16 18 22 24 24 20 15 10 8 9 10 9 7 5 2 0 0 0 0 0 0 0 0 0 0 0 0 0 0
0 0 0 0 0 1 1 1 4 11 18 19 18 18 17 18 19 20 21 18 15 15 17 20 19 16 10 6 5 6 7 7 7 6 4 2 0 0 0 0 0 0 0 0 0 0 0 0 0
0 0 0 0 0 0 0 0 2 8 13 14 14 15 15 15 16 17 18 17 15 13 12 14 14 11 8 5 5 5 5 6 6 6 6 3 1 1 0 0 0 0 0 0 0 0 0 0 0
0 0 0 0 0 0 0 0 1 5 9 9 10 12 13 13 15 16 16 15 13 11 10 10 10 9 7 7 8 7 5 5 6 6 6 5 4 2 1 0 0 0 0 0 0 0 0 0 0
0 0 0 0 0 0 0 0 0 2 6 7 7 9 11 12 13 15 15 12 10 9 8 8 8 9 8 9 12 10 6 5 5 6 6 6 5 3 1 0 0 0 0 0 0 0 0 0 0
0 0 0 0 0 0 0 0 0 1 4 5 5 7 9 10 11 13 12 9 6 6 6 7 8 9 10 11 13 12 7 5 4 5 6 6 4 2 1 0 0 0 0 0 0 0 0 0 0
0 0 0 0 0 0 0 0 0 1 3 4 4 6 9 9 9 10 8 5 3 3 4 4 6 8 9 12 13 12 8 5 4 4 4 4 3 1 0 0 0 0 0 0 0 0 0 0 0
0 0 0 0 0 0 0 0 0 1 2 3 4 6 8 8 8 8 6 4 2 1 2 3 3 4 7 11 12 11 8 5 3 2 3 4 3 1 0 0 0 0 0 0 0 0 0 0 0
0 0 0 0 0 0 0 0 0 1 2 3 4 6 7 7 7 7 6 4 2 1 1 1 1 1 5 9 11 10 8 5 2 1 2 4 4 2 1 0 0 0 0 0 0 0 0 0 0
0 0 0 0 0 0 0 0 0 0 1 2 3 4 5 5 4 4 5 5 4 3 2 1 0 1 3 6 8 8 7 4 3 2 2 3 4 3 2 1 0 0 0 0 0 0 0 0 0
0 0 0 0 0 0 0 0 0 0 0 1 2 3 3 2 2 3 5 6 6 5 3 2 1 1 3 4 5 6 5 4 3 2 2 2 2 2 3 2 1 0 0 0 0 0 0 0 0
0 0 0 0 0 0 0 0 0 0 0 0 1 2 1 1 2 3 4 5 6 6 4 3 3 3 2 2 3 4 4 3 3 2 1 1 0 1 3 3 2 1 0 0 0 0 0 0 0
0 0 0 0 0 0 0 0 0 0 0 0 0 0 0 0 1 3 3 4 5 6 5 4 3 3 3 2 3 3 3 3 3 1 0 0 0 2 3 3 3 1 1 1 1 0 0 0 0
0 0 0 0 0 0 0 0 0 0 0 0 0 0 0 0 1 2 3 3 4 5 5 4 3 3 4 4 4 3 3 3 2 1 0 0 0 1 2 3 3 3 3 2 1 0 0 0 0
0 0 0 0 0 0 0 0 0 0 0 0 0 0 0 0 0 1 3 3 4 4 4 4 3 4 5 5 5 4 3 3 1 0 0 0 0 0 1 3 3 3 3 3 2 1 0 0 0
Wind_Speed
6 5 2 1 3 3 2 3 2 2 2 2 5 5 5 5 4 3 2 13 17 16 13 16 18 18 18 17 17 17 17 17 16 16 16 15 15 14 14 13 13 12 12 12 12 12 11 12 11
5 4 1 2 3 1 4 3 3 4 3 3 3 3 2 1 2 6 7 12 18 16 12 14 19 19 18 17 17 16 16 16 16 15 15 14 14 13 13 13 12 12 12 12 12 12 12 11 11
5 2 2 3 2 3 4 4 3 2 4 4 3 2 2 3 6 7 8 15 16 14 11 14 21 19 18 18 17 16 16 15 15 14 14 14 13 13 13 13 12 12 12 12 12 12 11 11 10
3 2 3 3 3 5 5 4 3 4 2 2 4 3 1 1 5 6 14 17 17 13 11 14 21 19 19 18 17 16 16 15 14 14 13 13 13 12 12 12 12 11 11 11 11 11 11 10 9
3 3 3 2 5 6 5 5 6 6 4 3 4 3 1 3 7 14 16 16 16 12 10 13 20 20 19 18 17 16 15 15 14 13 12 12 12 12 12 12 11 11 11 11 10 10 10 9 8
4 4 3 2 5 5 4 4 5 4 3 4 5 3 1 2 10 14 14 14 14 14 11 12 20 20 19 18 17 16 15 14 14 13 12 12 11 11 11 11 11 10 10 10 9 9 8 7 6
4 4 2 3 4 4 2 2 5 4 4 4 5 5 2 4 8 12 12 11 11 12 10 9 11 14 18 18 17 16 15 14 13 13 12 11 11 10 10 10 10 10 9 9 8 8 7 6 5
4 4 1 3 3 4 1 2 1 3 3 3 5 7 6 8 10 10 10 10 10 9 9 8 8 8 8 10 16 16 15 14 13 13 12 11 11 10 10 8 8 9 8 8 7 7 6 6 5
4 3 2 4 4 4 1 1 1 2 4 3 2 3 6 15 14 13 12 9 10 10 7 7 8 7 7 7 12 13 14 14 12 10 12 9 4 4 5 6 7 7 7 6 5 5 5 5 4
4 3 7 6 5 4 2 3 4 3 2 2 2 4 12 17 16 17 17 16 14 13 10 7 8 8 7 8 6 4 5 6 5 4 5 4 3 3 4 4 7 6 6 5 4 4 4 4 2
6 7 5 5 6 4 3 3 4 6 4 8 8 12 16 18 16 15 15 15 14 13 12 10 9 8 7 5 5 3 3 3 4 5 5 4 3 2 2 1 1 1 2 2 2 3 2 2 1
5 7 6 5 2 2 4 4 4 6 7 5 10 16 18 18 18 17 16 14 12 12 12 10 9 8 7 5 5 4 3 3 3 4 5 4 2 2 2 1 1 1 1 2 2 1 2 2 2
5 5 5 5 4 3 3 4 4 4 3 4 10 14 17 16 14 12 10 10 11 12 12 11 10 9 7 6 5 5 4 4 4 3 4 4 3 3 2 1 1 1 1 2 2 1 1 1 1
4 4 5 5 3 2 3 2 2 4 3 7 11 13 14 14 12 10 10 11 12 12 12 11 11 10 8 6 5 5 5 4 4 4 4 4 3 3 3 2 2 2 1 2 2 2 1 1 1
3 4 6 2 0 1 3 1 4 3 6 8 10 11 11 10 10 11 13 12 12 11 10 9 10 9 9 8 7 6 5 5 4 4 4 5 4 4 3 3 2 2 2 2 2 2 2 1 1
3 3 4 5 1 1 3 5 4 4 7 7 7 8 9 8 9 9 10 9 8 9 10 10 10 10 8 7 6 5 5 5 4 4 4 5 5 5 4 3 3 2 2 2 3 2 2 1 1
5 3 4 7 2 1 2 6 3 3 6 6 6 7 7 7 6 7 9 9 9 10 11 11 9 10 8 6 5 5 5 5 4 4 4 5 5 6 4 3 3 3 3 2 3 2 2 1 1
2 3 5 7 4 1 3 6 3 3 5 5 5 5 5 7 8 7 8 9 9 9 10 11 10 9 8 5 4 3 4 4 3 4 4 6 5 6 5 3 4 4 3 3 2 3 2 2 1
3 3 8 9 5 2 5 6 4 3 4 4 4 4 5 5 4 5 7 9 9 8 10 10 9 9 8 6 5 5 4 4 3 3 5 6 6 6 5 4 4 4 4 4 4 3 2 2 1
3 4 7 8 3 0 3 5 2 3 4 5 6 6 5 4 4 5 7 8 9 10 10 10 10 9 8 6 5 3 3 3 3 3 4 5 6 6 6 6 5 4 4 4 4 3 3 2 1
4 5 6 6 3 3 3 6 3 1 2 3 4 5 5 7 7 7 7 9 8 10 11 10 10 9 8 7 5 4 3 3 2 2 3 4 5 6 5 6 5 5 4 4 4 4 4 3 1
5 5 6 4 1 3 2 4 6 2 2 3 4 5 5 6 6 6 7 8 8 9 9 8 9 9 9 9 8 8 6 5 5 4 3 3 4 5 6 6 6 5 4 4 4 4 3 4 2
6 2 0 0 2 1 2 1 8 1 3 5 5 6 6 6 7 7 8 8 8 8 8 8 8 8 9 10 10 9 5 4 3 4 5 4 3 4 5 6 5 5 4 5 4 4 4 3 4
4 3 5 5 4 1 2 2 8 4 6 5 5 7 7 6 6 6 6 6 6 6 6 7 7 8 8 10 9 9 9 7 6 6 6 4 3 3 4 5 5 5 4 5 4 4 5 3 3
3 5 4 5 4 5 2 2 9 6 5 5 6 7 8 8 8 7 7 7 7 8 8 7 8 8 9 10 9 9 9 9 9 8 7 6 4 3 5 5 5 4 5 5 4 4 4 4 4
4 8 7 4 5 5 2 5 8 4 3 2 4 6 7 8 8 8 8 8 8 8 8 8 8 8 9 9 8 7 8 6 5 6 6 6 5 5 6 6 5 5 5 5 5 4 4 4 4
5 4 5 6 2 2 5 6 8 1 1 1 4 5 7 8 8 8 8 8 7 8 8 9 9 8 8 8 8 7 7 6 6 6 6 5 4 5 6 6 6 6 5 5 5 4 4 4 4
4 7 5 5 5 3 5 5 5 5 3 2 3 5 5 6 7 7 7 8 8 8 7 7 8 8 8 8 7 7 6 6 6 6 7 6 6 5 7 7 6 6 6 6 5 4 4 4 4
3 4 5 4 4 5 3 8 6 7 5 5 5 5 6 6 7 8 8 8 7 7 7 7 7 7 7 7 7 7 6 6 6 6 7 7 6 6 7 7 7 7 7 6 6 5 5 6 5
3 5 7 5 4 4 4 9 4 4 4 4 4 4 5 5 6 7 7 7 7 7 7 8 7 7 7 7 7 7 6 7 7 7 7 6 6 6 7 7 7 7 7 7 7 7 7 7 6
Wind_Direction
158 138 137 111 61 49 268 248 214 200 187 188 149 154 161 166 175 207 132 144 139 146 153 154 151 145 139 134 131 129 127 126 126 126 127 128 128 128 127 126 125 124 120 115 112 111 112 113 114
139 145 127 65 83 37 270 241 217 206 166 118 106 119 123 163 102 119 134 145 142 146 150 152 152 148 143 138 136 133 131 130 129 129 130 130 130 130 129 127 126 124 120 117 115 113 112 113 116
149 160 93 77 123 203 246 231 202 144 143 140 131 111 145 163 144 148 151 144 140 145 147 157 153 150 146 143 141 138 136 134 133 133 133 133 132 132 130 129 127 125 121 118 116 115 113 114 115
132 70 59 71 248 238 236 234 165 145 136 142 142 133 93 89 152 148 142 144 142 145 149 159 155 153 150 147 144 142 141 139 138 137 136 135 134 133 132 131 128 126 122 119 117 116 115 114 114
74 86 61 329 261 253 244 216 171 171 173 161 149 141 74 14 120 135 142 147 145 146 151 158 157 155 153 151 148 146 145 144 143 141 140 138 136 135 133 133 130 127 124 122 120 117 115 114 114
70 75 83 276 272 268 257 196 155 163 159 141 141 130 77 106 131 141 144 146 148 149 151 157 159 157 156 155 152 151 150 149 148 147 146 142 141 139 136 136 133 130 127 124 121 117 114 111 107
118 117 188 244 277 289 274 135 147 161 163 166 151 132 134 150 144 140 139 140 145 149 150 154 158 160 160 158 157 156 155 155 153 153 151 149 146 144 143 140 138 134 131 128 124 119 111 103 99
141 114 242 256 257 277 289 89 121 143 155 132 139 152 174 168 144 132 131 135 141 146 151 152 151 152 155 159 161 161 159 159 158 157 156 155 153 150 147 142 143 140 136 133 127 120 110 100 96
118 83 240 234 221 255 204 111 83 102 121 127 144 165 159 143 142 139 139 142 152 156 154 153 150 146 147 152 166 164 163 163 162 162 163 155 132 130 140 152 154 150 145 140 134 124 111 97 85
123 169 230 224 211 222 231 192 169 137 140 170 129 112 136 147 154 159 162 165 165 166 165 160 155 151 151 162 156 151 153 154 149 142 143 120 115 131 144 169 167 162 155 147 138 122 101 87 64
176 209 238 250 232 224 214 192 158 147 206 210 188 159 155 161 165 170 171 171 170 168 170 167 161 156 158 152 146 141 132 134 137 137 130 123 119 123 123 119 145 137 132 93 91 84 79 84 89
203 244 240 264 244 202 192 166 167 190 222 209 175 160 163 170 175 178 176 172 169 172 174 169 164 160 160 151 151 144 140 143 147 146 143 137 138 144 142 139 117 94 83 94 79 74 73 81 92
228 264 259 254 272 225 168 178 184 232 253 131 145 159 170 177 179 178 174 173 173 177 175 170 166 166 163 154 159 156 152 155 154 151 153 153 156 165 163 159 143 133 113 116 107 93 90 84 80
248 264 280 279 259 201 159 196 157 235 161 142 153 168 175 178 177 171 173 182 184 181 178 172 173 170 166 164 162 158 158 157 156 160 166 165 164 166 166 167 161 157 147 136 128 121 109 82 83
294 311 321 308 231 193 119 306 236 206 150 155 167 175 176 177 177 181 184 187 186 181 172 170 172 167 170 169 168 163 163 160 165 169 171 174 172 171 165 163 175 174 146 131 115 101 89 94 89
5 12 330 302 291 205 144 257 254 165 151 162 172 175 179 180 186 189 189 186 179 171 167 172 180 173 175 173 170 162 162 164 167 166 170 176 173 167 162 166 178 165 142 133 126 112 101 90 89
25 351 301 304 300 172 184 254 253 169 161 177 181 179 180 177 187 194 188 183 181 178 172 175 179 173 173 168 163 158 156 163 163 160 166 171 170 168 162 166 165 155 141 137 139 109 119 127 120
278 297 297 293 292 298 265 260 250 192 176 191 189 180 177 186 194 188 181 179 182 181 174 173 173 167 161 154 145 144 146 155 157 161 169 167 166 165 158 158 159 151 139 134 125 120 99 102 114
225 258 280 280 288 270 265 271 259 191 174 190 196 190 186 196 186 174 172 174 179 176 172 174 172 169 163 163 167 167 172 167 163 168 169 168 164 162 159 159 158 156 154 153 143 123 113 88 93
223 271 281 291 329 334 293 289 263 182 186 191 191 192 192 182 170 179 176 175 179 177 174 180 181 173 172 170 162 153 146 155 155 158 160 168 163 161 166 159 162 160 145 142 144 133 124 98 89
248 228 252 267 320 27 353 316 298 241 177 179 185 189 186 189 189 188 180 179 177 178 181 185 181 173 169 161 142 124 106 98 125 159 168 172 166 166 162 164 159 159 155 158 161 153 145 142 96
267 243 235 251 321 311 33 296 290 265 250 216 202 192 188 191 188 185 180 182 184 185 178 176 174 172 169 162 161 165 171 174 182 169 163 157 162 165 163 160 159 159 157 158 168 160 149 143 147
225 258 126 62 133 344 358 221 287 315 256 243 217 202 194 190 184 183 183 184 182 176 172 172 172 177 172 169 171 173 173 167 152 139 148 150 155 166 163 158 157 159 160 163 160 154 155 152 154
181 71 52 52 70 314 260 190 280 246 231 237 209 196 187 181 176 175 169 163 171 167 170 172 173 177 175 172 174 175 170 163 158 155 159 157 155 160 163 159 161 162 161 163 164 160 157 157 152
124 92 23 353 4 257 247 221 253 256 238 221 203 189 181 176 172 170 165 166 173 176 180 177 176 177 178 176 178 180 175 171 174 168 169 163 163 170 179 168 165 164 167 162 156 156 161 162 159
174 145 160 206 233 276 285 244 256 261 261 225 181 173 171 176 178 172 174 174 177 180 180 175 176 178 176 174 176 175 172 172 174 170 169 174 179 178 172 169 169 170 167 163 158 159 168 163 164
146 173 164 138 165 274 280 282 300 273 350 124 148 157 178 182 179 174 174 176 177 179 181 177 177 178 177 173 168 172 172 172 174 169 169 173 173 171 170 170 171 174 171 166 164 169 172 163 169
146 144 108 126 154 247 287 277 257 265 247 202 177 185 191 183 177 175 175 180 181 179 175 168 169 175 172 170 176 180 177 178 174 168 175 179 178 171 169 175 175 175 173 170 169 168 172 169 177
118 111 115 123 156 165 246 270 228 220 215 208 211 202 192 187 185 183 180 180 178 167 166 170 171 167 169 174 176 172 174 176 173 178 186 185 180 175 179 181 179 180 181 179 177 181 177 182 188
164 166 148 154 208 183 186 264 271 211 209 197 208 204 190 185 183 181 176 170 170 172 173 174 176 177 180 176 172 174 171 168 173 183 185 181 181 183 186 182 182 188 189 184 185 190 188 191 197